Location: Unspecified
(17.6330°N, 0.0000°E)
Time: 17:44:45
(UTC+00:00)

A-11 Canister half - Pass Details

Date: 22 June 2019
Orbit: 1514 x 1685 km, 47.2° (Epoch: 17 July)

Event Time Altitude Azimuth Distance (km) Brightness Sun altitude
Rises 09:15:17 0° 234° (SW) 4,930 11.3 50.7°
Reaches altitude 10° 09:18:32 10° 238° (WSW) 3,939 10.9 51.4°
Maximum altitude 09:28:27 58° 316° (NW) 1,882 10.1 53.7°
Drops below altitude 10° 09:38:09 10° 34° (NE) 3,849 11.7 55.9°
Sets 09:41:20 0° 38° (NE) 4,813 12.0 56.7°
